Location: Makanda
(37.6176°N, 89.2090°W)
Time: 05:55:02
(UTC+00:00)

Cosmos 1371 Rocket - Pass Details

Date: 23 September 2019
Orbit: 753 x 790 km, 74.0° (Epoch: 16 October)

Event Time Altitude Azimuth Distance (km) Brightness Sun altitude
Rises 00:46:33 0° 195° (SSW) 3,235 7.3 -11.2°
Reaches altitude 10° 00:48:55 10° 194° (SSW) 2,317 6.6 -11.7°
Maximum altitude 00:54:12 85° 106° (ESE) 790 4.0 -12.7°
Drops below altitude 10° 00:59:33 10° 19° (NNE) 2,353 6.4 -13.7°
Sets 01:01:58 0° 19° (NNE) 3,289 7.2 -14.2°
